Moorhead, MN

6:32 PM CDT on April 24, 2017 (GMT -0500)
Moorhead Municipal

Weather History for KJKJ - December, 2012

Change the Weather History Date:

Thursday, December 6, 2012

  Actual Average (KFAR) Record (KFAR)
Temperature  
Mean Temperature 29 °F -  
Max Temperature 39 °F 22 °F 65 °F (1939)
Min Temperature 19 °F 5 °F -26 °F (1972)
Degree Days  
Heating Degree Days 36    
Moisture  
Dew Point 24 °F    
Average Humidity 81    
Maximum Humidity 100    
Minimum Humidity 64    
Precipitation  
Precipitation 0.00 in - - ()
Sea Level Pressure  
Sea Level Pressure 29.89 in    
Wind  
Wind Speed 10 mph (WNW)    
Max Wind Speed 25 mph    
Max Gust Speed 30 mph    
Visibility 10 miles    
Events      
Averages and records for this station are not official NWS values.
T = Trace of Precipitation, MM = Missing Value Source: NWS Daily Summary

Daily Weather History Graph

Daily Weather History Graph

Search for Another Location

Airport or City:

Trip Planner

Search our weather history database for the weather conditions in past years. The results will help you decide how hot, cold, wet, or windy it might be!

Date:

Astronomy

Dec. 06, 2012 Rise Set
Actual Time 7:57 AM CST 4:38 PM CST
Civil Twilight 7:22 AM CST 5:13 PM CST
Nautical Twilight 6:44 AM CST 5:51 PM CST
Astronomical Twilight 6:07 AM CST 6:28 PM CST
Moon No Moon Rise 12:28 PM CST (12/6)
Length of Visible Light 9h 50m
Length of Day
8h 41m
Waning Gibbous, 49% of the Moon is Illuminated
Dec 6
Waning Gibbous
Dec 13
New
Dec 19
First Quarter
Dec 28
Full
Jan 4
Last Quarter

Hourly Weather History & Observations

Time (CST) Temp. Windchill Dew Point Humidity Pressure Visibility Wind Dir Wind Speed Gust Speed Precip Events Conditions
12:15 AM 39.2 °F 33.6 °F 30.2 °F 70% 29.69 in 10.0 mi South 8.1 mph - N/A   Scattered Clouds
12:35 AM 37.4 °F 30.8 °F 30.2 °F 75% 29.69 in 10.0 mi South 9.2 mph - N/A   Clear
12:55 AM 37.4 °F 30.8 °F 30.2 °F 75% 29.69 in 10.0 mi SSW 9.2 mph - N/A   Clear
1:15 AM 39.2 °F 33.6 °F 30.2 °F 70% 29.69 in 10.0 mi SSW 8.1 mph - N/A   Clear
1:35 AM 37.4 °F 32.8 °F 30.2 °F 75% 29.69 in 10.0 mi SSW 5.8 mph - N/A   Clear
1:55 AM 37.4 °F 32.1 °F 30.2 °F 75% 29.70 in 10.0 mi South 6.9 mph - N/A   Clear
2:15 AM 35.6 °F 29.9 °F 30.2 °F 81% 29.69 in 10.0 mi SSW 6.9 mph - N/A   Clear
2:34 AM 33.8 °F 26.4 °F 30.2 °F 87% 29.70 in 10.0 mi SSW 9.2 mph - N/A   Clear
2:55 AM 33.8 °F 26.4 °F 30.2 °F 87% 29.71 in 10.0 mi SW 9.2 mph - N/A   Clear
3:15 AM 32.0 °F 26.4 °F 28.4 °F 87% 29.72 in 10.0 mi SW 5.8 mph - N/A   Clear
3:34 AM 33.8 °F 27.7 °F 28.4 °F 81% 29.72 in 10.0 mi WSW 6.9 mph - N/A   Clear
3:55 AM 33.8 °F 25.3 °F 28.4 °F 81% 29.74 in 10.0 mi WNW 11.5 mph - N/A   Clear
4:15 AM 37.4 °F 27.5 °F 32.0 °F 81% 29.74 in 10.0 mi WNW 18.4 mph 23.0 mph N/A   Clear
4:35 AM 35.6 °F 27.1 °F 32.0 °F 87% 29.75 in 10.0 mi WNW 12.7 mph - N/A   Clear
4:55 AM 37.4 °F 28.9 °F 33.8 °F 87% 29.75 in 10.0 mi NW 13.8 mph 21.9 mph N/A   Scattered Clouds
5:15 AM 35.6 °F 25.2 °F 30.2 °F 81% 29.76 in 10.0 mi NW 18.4 mph - N/A   Scattered Clouds
5:35 AM 35.6 °F 24.8 °F 28.4 °F 75% 29.78 in 10.0 mi NW 19.6 mph 27.6 mph N/A   Clear
5:55 AM 33.8 °F 21.6 °F 28.4 °F 81% 29.80 in 10.0 mi NNW 23.0 mph 29.9 mph N/A   Clear
6:14 AM 32.0 °F 18.6 °F 26.6 °F 80% 29.81 in 10.0 mi NW 25.3 mph - N/A   Scattered Clouds
6:35 AM 30.2 °F 18.5 °F 26.6 °F 86% 29.82 in 10.0 mi NW 17.3 mph 23.0 mph N/A   Scattered Clouds
6:55 AM 30.2 °F 18.9 °F 26.6 °F 86% 29.83 in 10.0 mi NW 16.1 mph 21.9 mph N/A   Scattered Clouds
7:14 AM 30.2 °F 18.5 °F 26.6 °F 86% 29.83 in 10.0 mi NW 17.3 mph - N/A   Mostly Cloudy
7:35 AM 28.4 °F 16.2 °F 24.8 °F 86% 29.84 in 10.0 mi NW 17.3 mph - N/A   Scattered Clouds
7:55 AM 28.4 °F 16.6 °F 24.8 °F 86% 29.85 in 10.0 mi NW 16.1 mph 21.9 mph N/A   Mostly Cloudy
8:15 AM 28.4 °F 17.0 °F 24.8 °F 86% 29.86 in 10.0 mi NW 15.0 mph 18.4 mph N/A   Overcast
8:35 AM 28.4 °F 15.8 °F 24.8 °F 86% 29.87 in 10.0 mi NW 18.4 mph 21.9 mph N/A   Overcast
8:55 AM 28.4 °F 16.6 °F 24.8 °F 86% 29.88 in 10.0 mi NW 16.1 mph - N/A   Overcast
9:15 AM 28.4 °F 17.5 °F 24.8 °F 86% 29.89 in 10.0 mi NW 13.8 mph - N/A   Overcast
9:35 AM 28.4 °F 17.0 °F 24.8 °F 86% 29.89 in 10.0 mi WNW 15.0 mph - N/A   Overcast
9:55 AM 28.4 °F 16.6 °F 24.8 °F 86% 29.90 in 10.0 mi NW 16.1 mph 19.6 mph N/A   Overcast
10:15 AM 28.4 °F 17.5 °F 23.0 °F 80% 29.92 in 10.0 mi NW 13.8 mph - N/A   Overcast
10:35 AM 28.4 °F 16.6 °F 21.2 °F 74% 29.92 in 10.0 mi NW 16.1 mph - N/A   Scattered Clouds
10:55 AM 28.4 °F 17.0 °F 21.2 °F 74% 29.92 in 10.0 mi NW 15.0 mph - N/A   Scattered Clouds
11:15 AM 28.4 °F 16.6 °F 21.2 °F 74% 29.92 in 10.0 mi NNW 16.1 mph - N/A   Mostly Cloudy
11:35 AM 28.4 °F 17.5 °F 21.2 °F 74% 29.92 in 10.0 mi NNW 13.8 mph 21.9 mph N/A   Overcast
11:54 AM 28.4 °F 17.5 °F 21.2 °F 74% 29.92 in 10.0 mi NNW 13.8 mph - N/A   Overcast
12:15 PM 28.4 °F 17.0 °F 21.2 °F 74% 29.93 in 10.0 mi NNW 15.0 mph 19.6 mph N/A   Overcast
12:35 PM 28.4 °F 18.0 °F 21.2 °F 74% 29.93 in 10.0 mi NW 12.7 mph 18.4 mph N/A   Overcast
12:54 PM 28.4 °F 19.1 °F 21.2 °F 74% 29.93 in 10.0 mi NNW 10.4 mph - N/A   Mostly Cloudy
1:15 PM 30.2 °F 20.2 °F 21.2 °F 69% 29.93 in 10.0 mi NW 12.7 mph 17.3 mph N/A   Mostly Cloudy
1:35 PM 30.2 °F 19.8 °F 21.2 °F 69% 29.93 in 10.0 mi NW 13.8 mph - N/A   Scattered Clouds
1:55 PM 30.2 °F 19.3 °F 21.2 °F 69% 29.93 in 10.0 mi WNW 15.0 mph - N/A   Clear
2:15 PM 30.2 °F 20.2 °F 21.2 °F 69% 29.94 in 10.0 mi WNW 12.7 mph - N/A   Clear
2:35 PM 32.0 °F 22.5 °F 21.2 °F 64% 29.94 in 10.0 mi NW 12.7 mph - N/A   Clear
2:55 PM 30.2 °F 21.9 °F 19.4 °F 64% 29.94 in 10.0 mi NW 9.2 mph - N/A   Clear
3:15 PM 30.2 °F 24.3 °F 19.4 °F 64% 29.95 in 10.0 mi NW 5.8 mph - N/A   Clear
3:35 PM 30.2 °F 23.4 °F 21.2 °F 69% 29.95 in 10.0 mi NW 6.9 mph - N/A   Clear
3:55 PM 30.2 °F 22.6 °F 19.4 °F 64% 29.96 in 10.0 mi NW 8.1 mph 11.5 mph N/A   Clear
4:15 PM 30.2 °F 22.6 °F 19.4 °F 64% 29.97 in 10.0 mi WNW 8.1 mph - N/A   Clear
4:35 PM 30.2 °F 23.4 °F 19.4 °F 64% 29.97 in 10.0 mi WNW 6.9 mph - N/A   Clear
4:55 PM 28.4 °F 22.2 °F 21.2 °F 74% 29.97 in 10.0 mi NW 5.8 mph - N/A   Clear
5:15 PM 28.4 °F 19.1 °F 21.2 °F 74% 29.98 in 10.0 mi NW 10.4 mph - N/A   Clear
5:35 PM 28.4 °F 20.4 °F 21.2 °F 74% 29.98 in 10.0 mi NW 8.1 mph - N/A   Clear
5:55 PM 26.6 °F 20.0 °F 21.2 °F 80% 29.98 in 10.0 mi WNW 5.8 mph - N/A   Clear
6:15 PM 24.8 °F 20.5 °F 21.2 °F 86% 29.98 in 10.0 mi NW 3.5 mph - N/A   Clear
6:35 PM 26.6 °F - 21.2 °F 80% 29.99 in 10.0 mi Calm Calm - N/A   Clear
6:55 PM 26.6 °F - 21.2 °F 80% 30.00 in 10.0 mi Calm Calm - N/A   Clear
7:14 PM 26.6 °F - 21.2 °F 80% 29.99 in 10.0 mi Calm Calm - N/A   Clear
7:35 PM 23.0 °F - 21.2 °F 93% 29.98 in 10.0 mi Calm Calm - N/A   Clear
7:55 PM 21.2 °F - 21.2 °F 100% 29.98 in 10.0 mi Calm Calm - N/A   Clear
8:35 PM 21.2 °F 14.9 °F 19.4 °F 93% 29.98 in 10.0 mi SW 4.6 mph - N/A   Clear
8:55 PM 21.2 °F 13.6 °F 21.2 °F 100% 29.99 in 10.0 mi SSW 5.8 mph - N/A   Clear
9:15 PM 21.2 °F 12.6 °F 21.2 °F 100% 30.00 in 10.0 mi SSW 6.9 mph - N/A   Clear
9:35 PM 21.2 °F 14.9 °F 19.4 °F 93% 30.00 in 10.0 mi SSW 4.6 mph - N/A   Clear
9:54 PM 21.2 °F 14.9 °F 19.4 °F 93% 30.01 in 10.0 mi SSW 4.6 mph - N/A   Clear
10:15 PM 19.4 °F 14.3 °F 19.4 °F 100% 30.01 in 10.0 mi SSW 3.5 mph - N/A   Clear
10:35 PM 19.4 °F - 19.4 °F 100% 30.01 in 10.0 mi Calm Calm - N/A   Clear
10:55 PM 19.4 °F - 17.6 °F 93% 30.01 in 10.0 mi Calm Calm - N/A   Clear
11:15 PM 19.4 °F - 17.6 °F 93% 30.00 in 10.0 mi Calm Calm - N/A   Clear
11:35 PM 19.4 °F 11.5 °F 19.4 °F 100% 30.01 in 10.0 mi South 5.8 mph - N/A   Clear
11:54 PM 21.2 °F - 19.4 °F 93% 30.00 in 10.0 mi Calm Calm - N/A   Clear